Location: Hurecourt
(47.9030°N, 6.0653°E)
Time: 07:38:55
(UTC+00:00)

Cosmos 1954 Rocket - Pass Details

Date: 14 July 2020
Orbit: 751 x 782 km, 74.0° (Epoch: 14 August)

Event Time Altitude Azimuth Distance (km) Brightness Sun altitude
Exits shadow 02:08:17 18° 205° (SSW) 1,799 5.3 -13.1°
Maximum altitude 02:12:11 83° 292° (WNW) 787 4.0 -12.7°
Drops below altitude 10° 02:17:32 10° 21° (NNE) 2,342 7.9 -12.2°
Sets 02:19:56 0° 23° (NNE) 3,277 9.0 -11.9°
